| time (UTC) | temp F | wind direction | speed MPH | gust MPH | rain 1hr in | rain 24hr in | rain mn in | humidity % | barometer mb |
| 20260507003042 | 68 | 0.0 | 0.0 | 0.00 | 0.00 | 0.00 | 17 | 1011.5 | |
| 20260507001605 | 69 | 0.0 | 0.0 | 0.00 | 0.00 | 0.00 | 20 | 1011.3 | |
| 20260507000045 | 70 | 0.0 | 0.0 | 0.00 | 0.00 | 0.00 | 26 | 1010.7 | |
| 20260506234552 | 72 | 0.0 | 0.0 | 0.00 | 0.00 | 0.00 | 38 | 1010.2 | |
| 20260506233041 | 73 | 0.0 | 0.0 | 0.00 | 0.00 | 0.00 | 47 | 1010.5 | |
| 20260506231542 | 74 | 0.0 | 0.0 | 0.00 | 0.00 | 0.00 | 53 | 1010.8 | |
| 20260506230040 | 76 | 0.0 | 0.0 | 0.00 | 0.00 | 0.00 | 61 | 1010.4 | |
| 20260506224603 | 78 | 0.0 | 0.0 | 0.00 | 0.00 | 0.00 | 55 | 1010.2 | |
| 20260506223046 | 79 | 0.0 | 0.0 | 0.00 | 0.00 | 0.00 | 40 | 1010.1 | |
| 20260506221542 | 79 | 0.0 | 0.0 | 0.00 | 0.00 | 0.00 | 43 | 1010.3 | |
| 20260506220048 | 79 | 0.0 | 0.0 | 0.00 | 0.00 | 0.00 | 40 | 1010.4 | |
| 20260506214542 | 79 | 0.0 | 0.0 | 0.00 | 0.00 | 0.00 | 42 | 1010.0 | |
| 20260506213045 | 79 | 0.0 | 0.0 | 0.00 | 0.00 | 0.00 | 47 | 1010.3 | |
| 20260506211552 | 80 | 0.0 | 0.0 | 0.00 | 0.00 | 0.00 | 49 | 1010.4 | |
| 20260506210043 | 80 | 0.0 | 0.0 | 0.00 | 0.00 | 0.00 | 51 | 1010.5 | |
| 20260506204542 | 80 | 0.0 | 0.0 | 0.00 | 0.00 | 0.00 | 54 | 1010.6 | |
| 20260506203038 | 81 | 0.0 | 0.0 | 0.00 | 0.00 | 0.00 | 54 | 1010.9 | |
| 20260506201542 | 81 | 0.0 | 0.0 | 0.00 | 0.00 | 0.00 | 49 | 1011.3 | |
| 20260506200045 | 81 | 0.0 | 0.0 | 0.00 | 0.00 | 0.00 | 46 | 1011.5 | |
| 20260506194546 | 80 | 0.0 | 0.0 | 0.00 | 0.00 | 0.00 | 44 | 1011.8 | |
| 20260506193048 | 80 | 0.0 | 0.0 | 0.00 | 0.00 | 0.00 | 48 | 1012.1 | |
| 20260506191541 | 80 | 0.0 | 0.0 | 0.00 | 0.00 | 0.00 | 50 | 1012.2 | |
| 20260506190043 | 80 | 0.0 | 0.0 | 0.00 | 0.00 | 0.00 | 46 | 1012.2 | |
| 20260506184539 | 80 | 0.0 | 0.0 | 0.00 | 0.00 | 0.00 | 45 | 1012.4 | |
| 20260506183045 | 80 | 0.0 | 0.0 | 0.00 | 0.00 | 0.00 | 42 | 1012.7 | |
| 20260506181558 | 79 | 0.0 | 0.0 | 0.00 | 0.00 | 0.00 | 42 | 1012.8 | |
| 20260506180043 | 78 | 0.0 | 0.0 | 0.00 | 0.00 | 0.00 | 24 | 1012.9 | |
| 20260506174541 | 77 | 0.0 | 0.0 | 0.00 | 0.00 | 0.00 | 25 | 1013.0 | |
| 20260506173116 | 77 | 0.0 | 0.0 | 0.00 | 0.00 | 0.00 | 28 | 1013.4 | |
| 20260506171551 | 77 | 0.0 | 0.0 | 0.00 | 0.00 | 0.00 | 18 | 1013.4 | |
| 20260506170052 | 76 | 0.0 | 0.0 | 0.00 | 0.00 | 0.00 | 17 | 1013.5 | |
| 20260506164543 | 76 | 0.0 | 0.0 | 0.00 | 0.00 | 0.00 | 14 | 1013.5 | |
| 20260506163041 | 76 | 0.0 | 0.0 | 0.00 | 0.00 | 0.00 | 16 | 1013.5 | |
| 20260506161541 | 76 | 0.0 | 0.0 | 0.00 | 0.00 | 0.00 | 12 | 1013.5 | |
| 20260506160041 | 74 | 0.0 | 0.0 | 0.00 | 0.00 | 0.00 | 100 | 1013.4 | |
| 20260506154549 | 72 | 0.0 | 0.0 | 0.00 | 0.00 | 0.00 | 100 | 1013.4 | |
| 20260506153043 | 72 | 0.0 | 0.0 | 0.00 | 0.00 | 0.00 | 100 | 1013.4 | |
| 20260506151545 | 71 | 0.0 | 0.0 | 0.00 | 0.00 | 0.00 | 100 | 1013.4 | |
| 20260506150048 | 71 | 0.0 | 0.0 | 0.00 | 0.00 | 0.00 | 100 | 1013.4 | |
| 20260506144545 | 71 | 0.0 | 0.0 | 0.00 | 0.00 | 0.00 | 2 | 1013.3 | |
| 20260506143045 | 71 | 0.0 | 0.0 | 0.00 | 0.00 | 0.00 | 4 | 1013.2 | |
| 20260506141542 | 71 | 0.0 | 0.0 | 0.00 | 0.00 | 0.00 | 8 | 1013.2 | |
| 20260506140042 | 71 | 0.0 | 0.0 | 0.00 | 0.00 | 0.00 | 9 | 1013.2 | |
| 20260506134543 | 71 | 0.0 | 0.0 | 0.00 | 0.00 | 0.00 | 12 | 1013.2 | |
| 20260506133048 | 71 | 0.0 | 0.0 | 0.00 | 0.00 | 0.00 | 16 | 1013.0 | |
| 20260506131549 | 71 | 0.0 | 0.0 | 0.00 | 0.00 | 0.00 | 20 | 1013.1 | |
| 20260506130052 | 72 | 0.0 | 0.0 | 0.00 | 0.00 | 0.00 | 23 | 1013.4 | |
| 20260506124543 | 72 | 0.0 | 0.0 | 0.00 | 0.00 | 0.00 | 25 | 1013.2 | |
| 20260506123042 | 71 | 0.0 | 0.0 | 0.00 | 0.00 | 0.00 | 25 | 1012.9 | |
| 20260506121541 | 71 | 0.0 | 0.0 | 0.00 | 0.00 | 0.00 | 25 | 1012.9 | |
| 20260506120046 | 71 | 0.0 | 0.0 | 0.00 | 0.00 | 0.00 | 26 | 1012.5 | |
| 20260506114545 | 71 | 0.0 | 0.0 | 0.00 | 0.00 | 0.00 | 28 | 1012.3 | |
| 20260506113043 | 71 | 0.0 | 0.0 | 0.00 | 0.00 | 0.00 | 30 | 1012.2 | |
| 20260506111542 | 71 | 0.0 | 0.0 | 0.00 | 0.00 | 0.00 | 32 | 1011.7 | |
| 20260506110042 | 71 | 0.0 | 0.0 | 0.00 | 0.00 | 0.00 | 35 | 1011.5 | |
| 20260506104546 | 71 | 0.0 | 0.0 | 0.00 | 0.00 | 0.00 | 35 | 1011.1 | |
| 20260506103043 | 71 | 0.0 | 0.0 | 0.00 | 0.00 | 0.00 | 36 | 1010.5 | |
| 20260506101545 | 71 | 0.0 | 0.0 | 0.00 | 0.00 | 0.00 | 37 | 1010.7 | |
| 20260506100042 | 71 | 0.0 | 0.0 | 0.00 | 0.00 | 0.00 | 39 | 1010.9 | |
| 20260506094551 | 72 | 0.0 | 0.0 | 0.00 | 0.00 | 0.00 | 40 | 1010.9 | |
| 20260506093041 | 72 | 0.0 | 0.0 | 0.00 | 0.00 | 0.00 | 39 | 1010.9 | |
| 20260506091546 | 71 | 0.0 | 0.0 | 0.00 | 0.00 | 0.00 | 37 | 1011.3 | |
| 20260506090045 | 71 | 0.0 | 0.0 | 0.00 | 0.00 | 0.00 | 32 | 1011.3 | |
| 20260506084546 | 71 | 0.0 | 0.0 | 0.00 | 0.00 | 0.00 | 30 | 1011.2 | |
| 20260506083042 | 71 | 0.0 | 0.0 | 0.00 | 0.00 | 0.00 | 30 | 1010.9 | |
| 20260506081544 | 71 | 0.0 | 0.0 | 0.00 | 0.00 | 0.00 | 30 | 1010.5 | |
| 20260506073045 | 71 | 0.0 | 0.0 | 0.00 | 0.00 | 0.00 | 35 | 1011.1 | |
| 20260506071546 | 71 | 0.0 | 0.0 | 0.00 | 0.00 | 0.00 | 38 | 1010.7 | |
| 20260506061542 | 72 | 0.0 | 0.0 | 0.00 | 0.00 | 0.00 | 49 | 1010.7 | |
| 20260506044544 | 74 | 0.0 | 0.0 | 0.00 | 0.00 | 0.00 | 65 | 1011.1 | |
| 20260506043043 | 74 | 0.0 | 0.0 | 0.00 | 0.00 | 0.00 | 68 | 1011.0 | |
| 20260506041541 | 74 | 0.0 | 0.0 | 0.00 | 0.00 | 0.00 | 70 | 1011.0 | |
| 20260506040042 | 75 | 0.0 | 0.0 | 0.00 | 0.00 | 0.00 | 71 | 1011.0 | |
| 20260506034544 | 75 | 0.0 | 0.0 | 0.00 | 0.00 | 0.00 | 72 | 1011.1 | |
| 20260506033046 | 75 | 0.0 | 0.0 | 0.00 | 0.00 | 0.00 | 72 | 1011.0 | |
| 20260506031549 | 75 | 0.0 | 0.0 | 0.00 | 0.00 | 0.00 | 72 | 1011.1 | |
| 20260506030044 | 75 | 0.0 | 0.0 | 0.00 | 0.00 | 0.00 | 72 | 1010.8 | |
| 20260506024550 | 75 | 0.0 | 0.0 | 0.00 | 0.00 | 0.00 | 72 | 1010.7 | |
| 20260506023040 | 76 | 0.0 | 0.0 | 0.00 | 0.00 | 0.00 | 72 | 1010.6 | |
| 20260506021537 | 76 | 0.0 | 0.0 | 0.00 | 0.00 | 0.00 | 72 | 1010.6 | |
| 20260506020042 | 76 | 0.0 | 0.0 | 0.00 | 0.00 | 0.00 | 72 | 1010.6 | |
| 20260506014545 | 76 | 0.0 | 0.0 | 0.00 | 0.00 | 0.00 | 72 | 1010.4 | |
| 20260506013042 | 76 | 0.0 | 0.0 | 0.00 | 0.00 | 0.00 | 72 | 1010.2 | |
| 20260506011540 | 76 | 0.0 | 0.0 | 0.00 | 0.00 | 0.00 | 72 | 1010.0 | |
| 20260506010040 | 76 | 0.0 | 0.0 | 0.00 | 0.00 | 0.00 | 72 | 1010.0 | |
| 20260506004546 | 77 | 0.0 | 0.0 | 0.00 | 0.00 | 0.00 | 72 | 1009.7 |